Year,Month,Day,Hour,Minute,Value (Times are PST for temperature in C)
2016,08,12,00,00,17.50
2016,08,12,00,01,17.50
2016,08,12,00,02,17.50
2016,08,12,00,03,17.40
2016,08,12,00,04,17.40
2016,08,12,00,05,17.40
2016,08,12,00,06,17.40
2016,08,12,00,07,17.40
2016,08,12,00,08,17.40
2016,08,12,00,09,17.40
2016,08,12,00,10,17.40
2016,08,12,00,11,17.40
2016,08,12,00,12,17.40
2016,08,12,00,13,17.40
2016,08,12,00,14,17.40
2016,08,12,00,15,17.40
2016,08,12,00,16,17.40
2016,08,12,00,17,17.40
2016,08,12,00,18,17.40
2016,08,12,00,19,17.40
2016,08,12,00,20,17.40
2016,08,12,00,21,17.40
2016,08,12,00,22,17.40
2016,08,12,00,23,17.40
2016,08,12,00,24,17.40
2016,08,12,00,25,17.30
2016,08,12,00,26,17.30
2016,08,12,00,27,17.30
2016,08,12,00,28,17.30
2016,08,12,00,29,17.30
2016,08,12,00,30,17.30
2016,08,12,00,31,17.30
2016,08,12,00,32,17.30
2016,08,12,00,33,17.30
2016,08,12,00,34,17.30
2016,08,12,00,35,17.30
2016,08,12,00,36,17.30
2016,08,12,00,37,17.30
2016,08,12,00,38,17.30
2016,08,12,00,39,17.30
2016,08,12,00,40,17.30
2016,08,12,00,41,17.30
2016,08,12,00,42,17.30
2016,08,12,00,43,17.30
2016,08,12,00,44,17.30
2016,08,12,00,45,17.30
2016,08,12,00,46,17.30
2016,08,12,00,47,17.20
2016,08,12,00,48,17.20
2016,08,12,00,49,17.20
2016,08,12,00,50,17.20
2016,08,12,00,51,17.20
2016,08,12,00,52,17.20
2016,08,12,00,53,17.20
2016,08,12,00,54,17.20
2016,08,12,00,55,17.20
2016,08,12,00,56,17.20
2016,08,12,00,57,17.20
2016,08,12,00,58,17.20
2016,08,12,00,59,17.20
2016,08,12,01,00,17.20
2016,08,12,01,01,17.20
2016,08,12,01,02,17.20
2016,08,12,01,03,17.20
2016,08,12,01,04,17.20
2016,08,12,01,05,17.20
2016,08,12,01,06,17.20
2016,08,12,01,07,17.30
2016,08,12,01,08,17.30
2016,08,12,01,09,17.30
2016,08,12,01,10,17.30
2016,08,12,01,11,17.30
2016,08,12,01,12,17.30
2016,08,12,01,13,17.30
2016,08,12,01,14,17.30
2016,08,12,01,15,17.30
2016,08,12,01,16,17.30
2016,08,12,01,17,17.30
2016,08,12,01,18,17.30
2016,08,12,01,19,17.30
2016,08,12,01,20,17.30
2016,08,12,01,21,17.30
2016,08,12,01,22,17.30
2016,08,12,01,23,17.30
2016,08,12,01,24,17.40
2016,08,12,01,25,17.40
2016,08,12,01,26,17.40
2016,08,12,01,27,17.40
2016,08,12,01,28,17.40
2016,08,12,01,29,17.40
2016,08,12,01,30,17.40
2016,08,12,01,31,17.40
2016,08,12,01,32,17.40
2016,08,12,01,33,17.40
2016,08,12,01,34,17.40
2016,08,12,01,35,17.50
2016,08,12,01,36,17.50
2016,08,12,01,37,17.50
2016,08,12,01,38,17.50
2016,08,12,01,39,17.50
2016,08,12,01,40,17.50
2016,08,12,01,41,17.50
2016,08,12,01,42,17.50
2016,08,12,01,43,17.50
2016,08,12,01,44,17.50
2016,08,12,01,45,17.50
2016,08,12,01,46,17.50
2016,08,12,01,47,17.50
2016,08,12,01,48,17.50
2016,08,12,01,49,17.50
2016,08,12,01,50,17.60
2016,08,12,01,51,17.60
2016,08,12,01,52,17.60
2016,08,12,01,53,17.70
2016,08,12,01,54,17.70
2016,08,12,01,55,17.70
2016,08,12,01,56,17.70
2016,08,12,01,57,17.70
2016,08,12,01,58,17.70
2016,08,12,01,59,17.70
2016,08,12,02,00,17.70
2016,08,12,02,01,17.70
2016,08,12,02,02,17.70
2016,08,12,02,03,17.70
2016,08,12,02,04,17.70
2016,08,12,02,05,17.70
2016,08,12,02,06,17.70
2016,08,12,02,07,17.70
2016,08,12,02,08,17.70
2016,08,12,02,09,17.70
2016,08,12,02,10,17.70
2016,08,12,02,11,17.70
2016,08,12,02,12,17.70
2016,08,12,02,13,17.70
2016,08,12,02,14,17.70
2016,08,12,02,15,17.70
2016,08,12,02,16,17.70
2016,08,12,02,17,17.70
2016,08,12,02,18,17.70
2016,08,12,02,19,17.70
2016,08,12,02,20,17.70
2016,08,12,02,21,17.70
2016,08,12,02,22,17.70
2016,08,12,02,23,17.70
2016,08,12,02,24,17.70
2016,08,12,02,25,17.70
2016,08,12,02,26,17.70
2016,08,12,02,27,17.70
2016,08,12,02,28,17.70
2016,08,12,02,29,17.70
2016,08,12,02,30,17.70
2016,08,12,02,31,17.70
2016,08,12,02,32,17.70
2016,08,12,02,33,17.70
2016,08,12,02,34,17.70
2016,08,12,02,35,17.70
2016,08,12,02,36,17.70
2016,08,12,02,37,17.70
2016,08,12,02,38,17.70
2016,08,12,02,39,17.80
2016,08,12,02,40,17.80
2016,08,12,02,41,17.80
2016,08,12,02,42,17.80
2016,08,12,02,43,17.80
2016,08,12,02,44,17.80
2016,08,12,02,45,17.80
2016,08,12,02,46,17.80
2016,08,12,02,47,17.80
2016,08,12,02,48,17.80
2016,08,12,02,49,17.80
2016,08,12,02,50,17.80
2016,08,12,02,51,17.80
2016,08,12,02,52,17.80
2016,08,12,02,53,17.80
2016,08,12,02,54,17.80
2016,08,12,02,55,17.80
2016,08,12,02,56,17.70
2016,08,12,02,57,17.70
2016,08,12,02,58,17.70
2016,08,12,02,59,17.70
2016,08,12,03,00,17.70
2016,08,12,03,01,17.70
2016,08,12,03,02,17.70
2016,08,12,03,03,17.70
2016,08,12,03,04,17.70
2016,08,12,03,05,17.70
2016,08,12,03,06,17.70
2016,08,12,03,07,17.70
2016,08,12,03,08,17.70
2016,08,12,03,09,17.60
2016,08,12,03,10,17.60
2016,08,12,03,11,17.60
2016,08,12,03,12,17.60
2016,08,12,03,13,17.60
2016,08,12,03,14,17.60
2016,08,12,03,15,17.60
2016,08,12,03,16,17.60
2016,08,12,03,17,17.60
2016,08,12,03,18,17.60
2016,08,12,03,19,17.60
2016,08,12,03,20,17.60
2016,08,12,03,21,17.60
2016,08,12,03,22,17.60
2016,08,12,03,23,17.60
2016,08,12,03,24,17.70
2016,08,12,03,25,17.60
2016,08,12,03,26,17.60
2016,08,12,03,27,17.70
2016,08,12,03,28,17.70
2016,08,12,03,29,17.70
2016,08,12,03,30,17.70
2016,08,12,03,31,17.70
2016,08,12,03,32,17.70
2016,08,12,03,33,17.70
2016,08,12,03,34,17.70
2016,08,12,03,35,17.80
2016,08,12,03,36,17.80
2016,08,12,03,37,17.80
2016,08,12,03,38,17.80
2016,08,12,03,39,17.80
2016,08,12,03,40,17.80
2016,08,12,03,41,17.80
2016,08,12,03,42,17.80
2016,08,12,03,43,17.90
2016,08,12,03,44,17.90
2016,08,12,03,45,17.90
2016,08,12,03,46,17.90
2016,08,12,03,47,17.90
2016,08,12,03,48,17.90
2016,08,12,03,49,18.00
2016,08,12,03,50,18.00
2016,08,12,03,51,18.00
2016,08,12,03,52,18.00
2016,08,12,03,53,18.00
2016,08,12,03,54,18.00
2016,08,12,03,55,18.10
2016,08,12,03,56,18.10
2016,08,12,03,57,18.10
2016,08,12,03,58,18.10
2016,08,12,03,59,18.10
2016,08,12,04,00,18.20
2016,08,12,04,01,18.20
2016,08,12,04,02,18.20
2016,08,12,04,03,18.30
2016,08,12,04,04,18.30
2016,08,12,04,05,18.40
2016,08,12,04,06,18.40
2016,08,12,04,07,18.50
2016,08,12,04,08,18.50
2016,08,12,04,09,18.60
2016,08,12,04,10,18.60
2016,08,12,04,11,18.60
2016,08,12,04,12,18.70
2016,08,12,04,13,18.70
2016,08,12,04,14,18.70
2016,08,12,04,15,18.70
2016,08,12,04,16,18.80
2016,08,12,04,17,18.80
2016,08,12,04,18,18.80
2016,08,12,04,19,18.80
2016,08,12,04,20,18.80
2016,08,12,04,21,18.80
2016,08,12,04,22,18.80
2016,08,12,04,23,18.80
2016,08,12,04,24,18.90
2016,08,12,04,25,18.90
2016,08,12,04,26,18.90
2016,08,12,04,27,18.90
2016,08,12,04,28,18.90
2016,08,12,04,29,19.00
2016,08,12,04,30,19.00
2016,08,12,04,31,19.00
2016,08,12,04,32,19.00
2016,08,12,04,33,19.00
2016,08,12,04,34,19.00
2016,08,12,04,35,19.00
2016,08,12,04,36,19.10
2016,08,12,04,37,19.10
2016,08,12,04,38,19.10
2016,08,12,04,39,19.10
2016,08,12,04,40,19.10
2016,08,12,04,41,19.10
2016,08,12,04,42,19.10
2016,08,12,04,43,19.10
2016,08,12,04,44,19.00
2016,08,12,04,45,19.00
2016,08,12,04,46,19.00
2016,08,12,04,47,19.00
2016,08,12,04,48,19.00
2016,08,12,04,49,19.00
2016,08,12,04,50,19.00
2016,08,12,04,51,18.90
2016,08,12,04,52,18.90
2016,08,12,04,53,18.90
2016,08,12,04,54,18.90
2016,08,12,04,55,18.90
2016,08,12,04,56,18.90
2016,08,12,04,57,18.90
2016,08,12,04,58,18.80
2016,08,12,04,59,18.80
2016,08,12,05,00,18.80
2016,08,12,05,01,18.80
2016,08,12,05,02,18.80
2016,08,12,05,03,18.80
2016,08,12,05,04,18.80
2016,08,12,05,05,18.80
2016,08,12,05,06,18.70
2016,08,12,05,07,18.70
2016,08,12,05,08,18.70
2016,08,12,05,09,18.70
2016,08,12,05,10,18.70
2016,08,12,05,11,18.70
2016,08,12,05,12,18.70
2016,08,12,05,13,18.60
2016,08,12,05,14,18.60
2016,08,12,05,15,18.60
2016,08,12,05,16,18.60
2016,08,12,05,17,18.60
2016,08,12,05,18,18.60
2016,08,12,05,19,18.60
2016,08,12,05,20,18.60
2016,08,12,05,21,18.60
2016,08,12,05,22,18.50
2016,08,12,05,23,18.50
2016,08,12,05,24,18.50
2016,08,12,05,25,18.50
2016,08,12,05,26,18.50
2016,08,12,05,27,18.50
2016,08,12,05,28,18.40
2016,08,12,05,29,18.40
2016,08,12,05,30,18.40
2016,08,12,05,31,18.40
2016,08,12,05,32,18.40
2016,08,12,05,33,18.30
2016,08,12,05,34,18.30
2016,08,12,05,35,18.30
2016,08,12,05,36,18.30
2016,08,12,05,37,18.30
2016,08,12,05,38,18.30
2016,08,12,05,39,18.30
2016,08,12,05,40,18.30
2016,08,12,05,41,18.30
2016,08,12,05,42,18.30
2016,08,12,05,43,18.30
2016,08,12,05,44,18.30
2016,08,12,05,45,18.30
2016,08,12,05,46,18.20
2016,08,12,05,47,18.20
2016,08,12,05,48,18.20
2016,08,12,05,49,18.20
2016,08,12,05,50,18.20
2016,08,12,05,51,18.20
2016,08,12,05,52,18.20
2016,08,12,05,53,18.20
2016,08,12,05,54,18.20
2016,08,12,05,55,18.20
2016,08,12,05,56,18.20
2016,08,12,05,57,18.20
2016,08,12,05,58,18.20
2016,08,12,05,59,18.20
2016,08,12,06,00,18.20
2016,08,12,06,01,18.20
2016,08,12,06,02,18.20
2016,08,12,06,03,18.20
2016,08,12,06,04,18.20
2016,08,12,06,05,18.20
2016,08,12,06,06,18.20
2016,08,12,06,07,18.20
2016,08,12,06,08,18.20
2016,08,12,06,09,18.20
2016,08,12,06,10,18.20
2016,08,12,06,11,18.20
2016,08,12,06,12,18.20
2016,08,12,06,13,18.20
2016,08,12,06,14,18.20
2016,08,12,06,15,18.20
2016,08,12,06,16,18.20
2016,08,12,06,17,18.10
2016,08,12,06,18,18.10
2016,08,12,06,19,18.10
2016,08,12,06,20,18.10
2016,08,12,06,21,18.10
2016,08,12,06,22,18.10
2016,08,12,06,23,18.10
2016,08,12,06,24,18.10
2016,08,12,06,25,18.10
2016,08,12,06,26,18.10
2016,08,12,06,27,18.10
2016,08,12,06,28,18.10
2016,08,12,06,29,18.10
2016,08,12,06,30,18.10
2016,08,12,06,31,18.10
2016,08,12,06,32,18.10
2016,08,12,06,33,18.10
2016,08,12,06,34,18.10
2016,08,12,06,35,18.10
2016,08,12,06,36,18.10
2016,08,12,06,37,18.20
2016,08,12,06,38,18.20
2016,08,12,06,39,18.20
2016,08,12,06,40,18.20
2016,08,12,06,41,18.20
2016,08,12,06,42,18.20
2016,08,12,06,43,18.20
2016,08,12,06,44,18.20
2016,08,12,06,45,18.20
2016,08,12,06,46,18.30
2016,08,12,06,47,18.30
2016,08,12,06,48,18.30
2016,08,12,06,49,18.30
2016,08,12,06,50,18.30
2016,08,12,06,51,18.30
2016,08,12,06,52,18.30
2016,08,12,06,53,18.30
2016,08,12,06,54,18.30
2016,08,12,06,55,18.30
2016,08,12,06,56,18.30
2016,08,12,06,57,18.30
2016,08,12,06,58,18.30
2016,08,12,06,59,18.30
2016,08,12,07,00,18.30
2016,08,12,07,01,18.30
2016,08,12,07,02,18.30
2016,08,12,07,03,18.40
2016,08,12,07,04,18.40
2016,08,12,07,05,18.40
2016,08,12,07,06,18.40
2016,08,12,07,07,18.40
2016,08,12,07,08,18.40
2016,08,12,07,09,18.40
2016,08,12,07,10,18.40
2016,08,12,07,11,18.40
2016,08,12,07,12,18.40
2016,08,12,07,13,18.40
2016,08,12,07,14,18.40
2016,08,12,07,15,18.40
2016,08,12,07,16,18.40
2016,08,12,07,17,18.40
2016,08,12,07,18,18.40
2016,08,12,07,19,18.40
2016,08,12,07,20,18.40
2016,08,12,07,21,18.40
2016,08,12,07,22,18.40
2016,08,12,07,23,18.40
2016,08,12,07,24,18.40
2016,08,12,07,25,18.50
2016,08,12,07,26,18.50
2016,08,12,07,27,18.50
2016,08,12,07,28,18.50
2016,08,12,07,29,18.50
2016,08,12,07,30,18.60
2016,08,12,07,31,18.60
2016,08,12,07,32,18.60
2016,08,12,07,33,18.60
2016,08,12,07,34,18.60
2016,08,12,07,35,18.60
2016,08,12,07,36,18.60
2016,08,12,07,37,18.60
2016,08,12,07,38,18.60
2016,08,12,07,39,18.60
2016,08,12,07,40,18.60
2016,08,12,07,41,18.60
2016,08,12,07,42,18.60
2016,08,12,07,43,18.60
2016,08,12,07,44,18.70
2016,08,12,07,45,18.70
2016,08,12,07,46,18.70
2016,08,12,07,47,18.70
2016,08,12,07,48,18.70
2016,08,12,07,49,18.70
2016,08,12,07,50,18.70
2016,08,12,07,51,18.70
2016,08,12,07,52,18.70
2016,08,12,07,53,18.70
2016,08,12,07,54,18.70
2016,08,12,07,55,18.70
2016,08,12,07,56,18.70
2016,08,12,07,57,18.70
2016,08,12,07,58,18.70
2016,08,12,07,59,18.70
2016,08,12,08,00,18.70
2016,08,12,08,01,18.70
2016,08,12,08,02,18.80
2016,08,12,08,03,18.80
2016,08,12,08,04,18.80
2016,08,12,08,05,18.80
2016,08,12,08,06,18.80
2016,08,12,08,07,18.80
2016,08,12,08,08,18.80
2016,08,12,08,09,18.80
2016,08,12,08,10,18.80
2016,08,12,08,11,18.80
2016,08,12,08,12,18.80
2016,08,12,08,13,18.80
2016,08,12,08,14,18.80
2016,08,12,08,15,18.80
2016,08,12,08,16,18.90
2016,08,12,08,17,18.90
2016,08,12,08,18,18.90
2016,08,12,08,19,18.90
2016,08,12,08,20,18.90
2016,08,12,08,21,18.90
2016,08,12,08,22,18.90
2016,08,12,08,23,19.00
2016,08,12,08,24,19.00
2016,08,12,08,25,19.00
2016,08,12,08,26,19.00
2016,08,12,08,27,19.00
2016,08,12,08,28,19.00
2016,08,12,08,29,19.00
2016,08,12,08,30,19.10
2016,08,12,08,31,19.10
2016,08,12,08,32,19.10
2016,08,12,08,33,19.10
2016,08,12,08,34,19.10
2016,08,12,08,35,19.10
2016,08,12,08,36,19.10
2016,08,12,08,37,19.10
2016,08,12,08,38,19.20
2016,08,12,08,39,19.20
2016,08,12,08,40,19.20
2016,08,12,08,41,19.20
2016,08,12,08,42,19.20
2016,08,12,08,43,19.20
2016,08,12,08,44,19.20
2016,08,12,08,45,19.20
2016,08,12,08,46,19.30
2016,08,12,08,47,19.30
2016,08,12,08,48,19.30
2016,08,12,08,49,19.30
2016,08,12,08,50,19.30
2016,08,12,08,51,19.30
2016,08,12,08,52,19.30
2016,08,12,08,53,19.30
2016,08,12,08,54,19.30
2016,08,12,08,55,19.30
2016,08,12,08,56,19.40
2016,08,12,08,57,19.40
2016,08,12,08,58,19.40
2016,08,12,08,59,19.40
2016,08,12,09,00,19.40
2016,08,12,09,01,19.40
2016,08,12,09,02,19.50
2016,08,12,09,03,19.50
2016,08,12,09,04,19.50
2016,08,12,09,05,19.60
2016,08,12,09,06,19.60
2016,08,12,09,07,19.60
2016,08,12,09,08,19.60
2016,08,12,09,09,19.60
2016,08,12,09,10,19.60
2016,08,12,09,11,19.60
2016,08,12,09,12,19.70
2016,08,12,09,13,19.70
2016,08,12,09,14,19.70
2016,08,12,09,15,19.70
2016,08,12,09,16,19.70
2016,08,12,09,17,19.70
2016,08,12,09,18,19.70
2016,08,12,09,19,19.70
2016,08,12,09,20,19.70
2016,08,12,09,21,19.80
2016,08,12,09,22,19.80
2016,08,12,09,23,19.80
2016,08,12,09,24,19.80
2016,08,12,09,25,19.80
2016,08,12,09,26,19.80
2016,08,12,09,27,19.80
2016,08,12,09,28,19.80
2016,08,12,09,29,19.80
2016,08,12,09,30,19.80
2016,08,12,09,31,19.80
2016,08,12,09,32,19.80
2016,08,12,09,33,19.80
2016,08,12,09,34,19.80
2016,08,12,09,35,19.80
2016,08,12,09,36,19.80
2016,08,12,09,37,19.80
2016,08,12,09,38,19.80
2016,08,12,09,39,19.80
2016,08,12,09,40,19.80
2016,08,12,09,41,19.90
2016,08,12,09,42,19.90
2016,08,12,09,43,19.90
2016,08,12,09,44,20.00
2016,08,12,09,45,20.00
2016,08,12,09,46,20.10
2016,08,12,09,47,20.10
2016,08,12,09,48,20.20
2016,08,12,09,49,20.30
2016,08,12,09,50,20.30
2016,08,12,09,51,20.40
2016,08,12,09,52,20.40
2016,08,12,09,53,20.50
2016,08,12,09,54,20.60
2016,08,12,09,55,20.60
2016,08,12,09,56,20.70
2016,08,12,09,57,20.70
2016,08,12,09,58,20.80
2016,08,12,09,59,20.80
2016,08,12,10,00,20.80
2016,08,12,10,01,20.80
2016,08,12,10,02,20.90
2016,08,12,10,03,20.90
2016,08,12,10,04,21.00
2016,08,12,10,05,21.00
2016,08,12,10,06,21.10
2016,08,12,10,07,21.10
2016,08,12,10,08,21.10
2016,08,12,10,09,21.10
2016,08,12,10,10,21.20
2016,08,12,10,11,21.20
2016,08,12,10,12,21.30
2016,08,12,10,13,21.30
2016,08,12,10,14,21.30
2016,08,12,10,15,21.40
2016,08,12,10,16,21.40
2016,08,12,10,17,21.50
2016,08,12,10,18,21.60
2016,08,12,10,19,21.60
2016,08,12,10,20,21.70
2016,08,12,10,21,21.70
2016,08,12,10,22,21.80
2016,08,12,10,23,21.80
2016,08,12,10,24,21.80
2016,08,12,10,25,21.80
2016,08,12,10,26,21.80
2016,08,12,10,27,21.90
2016,08,12,10,28,21.90
2016,08,12,10,29,21.90
2016,08,12,10,30,22.00
2016,08,12,10,31,22.10
2016,08,12,10,32,22.10
2016,08,12,10,33,22.10
2016,08,12,10,34,22.10
2016,08,12,10,35,22.10
2016,08,12,10,36,22.00
2016,08,12,10,37,22.00
2016,08,12,10,38,22.00
2016,08,12,10,39,21.90
2016,08,12,10,40,21.90
2016,08,12,10,41,21.90
2016,08,12,10,42,21.90
2016,08,12,10,43,21.90
2016,08,12,10,44,21.90
2016,08,12,10,45,21.90
2016,08,12,10,46,21.90
2016,08,12,10,47,21.90
2016,08,12,10,48,22.00
2016,08,12,10,49,22.00
2016,08,12,10,50,22.10
2016,08,12,10,51,22.10
2016,08,12,10,52,22.10
2016,08,12,10,53,22.20
2016,08,12,10,54,22.20
2016,08,12,10,55,22.20
2016,08,12,10,56,22.20
2016,08,12,10,57,22.30
2016,08,12,10,58,22.30
2016,08,12,10,59,22.30
2016,08,12,11,00,22.30
2016,08,12,11,01,22.30
2016,08,12,11,02,22.40
2016,08,12,11,03,22.40
2016,08,12,11,04,22.50
2016,08,12,11,05,22.60
2016,08,12,11,06,22.70
2016,08,12,11,07,22.80
2016,08,12,11,08,22.80
2016,08,12,11,09,22.90
2016,08,12,11,10,22.90
2016,08,12,11,11,23.00
2016,08,12,11,12,23.10
2016,08,12,11,13,23.10
2016,08,12,11,14,23.20
2016,08,12,11,15,23.20
2016,08,12,11,16,23.20
2016,08,12,11,17,23.20
2016,08,12,11,18,23.30
2016,08,12,11,19,23.30
2016,08,12,11,20,23.30
2016,08,12,11,21,23.30
2016,08,12,11,22,23.30
2016,08,12,11,23,23.30
2016,08,12,11,24,23.30
2016,08,12,11,25,23.30
2016,08,12,11,26,23.30
2016,08,12,11,27,23.40
2016,08,12,11,28,23.40
2016,08,12,11,29,23.50
2016,08,12,11,30,23.60
2016,08,12,11,31,23.60
2016,08,12,11,32,23.60
2016,08,12,11,33,23.60
2016,08,12,11,34,23.60
2016,08,12,11,35,23.50
2016,08,12,11,36,23.40
2016,08,12,11,37,23.40
2016,08,12,11,38,23.30
2016,08,12,11,39,23.30
2016,08,12,11,40,23.30
2016,08,12,11,41,23.30
2016,08,12,11,42,23.30
2016,08,12,11,43,23.20
2016,08,12,11,44,23.10
2016,08,12,11,45,23.00
2016,08,12,11,46,22.90
2016,08,12,11,47,22.90
2016,08,12,11,48,23.00
2016,08,12,11,49,23.00
2016,08,12,11,50,23.00
2016,08,12,11,51,23.00
2016,08,12,11,52,23.00
2016,08,12,11,53,23.00
2016,08,12,11,54,23.10
2016,08,12,11,55,23.20
2016,08,12,11,56,23.30
2016,08,12,11,57,23.30
2016,08,12,11,58,23.30
2016,08,12,11,59,23.30
2016,08,12,12,00,23.30
2016,08,12,12,01,23.30
2016,08,12,12,02,23.40
2016,08,12,12,03,23.40
2016,08,12,12,04,23.40
2016,08,12,12,05,23.50
2016,08,12,12,06,23.60
2016,08,12,12,07,23.60
2016,08,12,12,08,23.60
2016,08,12,12,09,23.60
2016,08,12,12,10,23.60
2016,08,12,12,11,23.50
2016,08,12,12,12,23.40
2016,08,12,12,13,23.30
2016,08,12,12,14,23.30
2016,08,12,12,15,23.30
2016,08,12,12,16,23.20
2016,08,12,12,17,23.20
2016,08,12,12,18,23.20
2016,08,12,12,19,23.30
2016,08,12,12,20,23.30
2016,08,12,12,21,23.40
2016,08,12,12,22,23.40
2016,08,12,12,23,23.50
2016,08,12,12,24,23.60
2016,08,12,12,25,23.70
2016,08,12,12,26,23.80
2016,08,12,12,27,23.90
2016,08,12,12,28,24.00
2016,08,12,12,29,24.10
2016,08,12,12,30,24.20
2016,08,12,12,31,24.30
2016,08,12,12,32,24.40
2016,08,12,12,33,24.60
2016,08,12,12,34,24.70
2016,08,12,12,35,24.80
2016,08,12,12,36,24.80
2016,08,12,12,37,24.90
2016,08,12,12,38,24.90
2016,08,12,12,39,24.90
2016,08,12,12,40,24.90
2016,08,12,12,41,24.80
2016,08,12,12,42,24.80
2016,08,12,12,43,24.70
2016,08,12,12,44,24.70
2016,08,12,12,45,24.70
2016,08,12,12,46,24.70
2016,08,12,12,47,24.70
2016,08,12,12,48,24.70
2016,08,12,12,49,24.70
2016,08,12,12,50,24.70
2016,08,12,12,51,24.70
2016,08,12,12,52,24.80
2016,08,12,12,53,24.80
2016,08,12,12,54,24.80
2016,08,12,12,55,24.80
2016,08,12,12,56,24.80
2016,08,12,12,57,24.70
2016,08,12,12,58,24.60
2016,08,12,12,59,24.60
2016,08,12,13,00,24.60
2016,08,12,13,01,24.60
2016,08,12,13,02,24.50
2016,08,12,13,03,24.50
2016,08,12,13,04,24.40
2016,08,12,13,05,24.40
2016,08,12,13,06,24.40
2016,08,12,13,07,24.40
2016,08,12,13,08,24.40
2016,08,12,13,09,24.40
2016,08,12,13,10,24.40
2016,08,12,13,11,24.40
2016,08,12,13,12,24.40
2016,08,12,13,13,24.40
2016,08,12,13,14,24.40
2016,08,12,13,15,24.50
2016,08,12,13,16,24.60
2016,08,12,13,17,24.60
2016,08,12,13,18,24.70
2016,08,12,13,19,24.70
2016,08,12,13,20,24.60
2016,08,12,13,21,24.50
2016,08,12,13,22,24.50
2016,08,12,13,23,24.40
2016,08,12,13,24,24.40
2016,08,12,13,25,24.50
2016,08,12,13,26,24.50
2016,08,12,13,27,24.60
2016,08,12,13,28,24.60
2016,08,12,13,29,24.60
2016,08,12,13,30,24.60
2016,08,12,13,31,24.60
2016,08,12,13,32,24.60
2016,08,12,13,33,24.70
2016,08,12,13,34,24.70
2016,08,12,13,35,24.80
2016,08,12,13,36,24.80
2016,08,12,13,37,24.90
2016,08,12,13,38,25.00
2016,08,12,13,39,25.10
2016,08,12,13,40,25.10
2016,08,12,13,41,25.20
2016,08,12,13,42,25.20
2016,08,12,13,43,25.20
2016,08,12,13,44,25.20
2016,08,12,13,45,25.20
2016,08,12,13,46,25.20
2016,08,12,13,47,25.20
2016,08,12,13,48,25.30
2016,08,12,13,49,25.40
2016,08,12,13,50,25.40
2016,08,12,13,51,25.40
2016,08,12,13,52,25.50
2016,08,12,13,53,25.50
2016,08,12,13,54,25.50
2016,08,12,13,55,25.30
2016,08,12,13,56,25.30
2016,08,12,13,57,25.20
2016,08,12,13,58,25.20
2016,08,12,13,59,25.20
2016,08,12,14,00,25.20
2016,08,12,14,01,25.20
2016,08,12,14,02,25.10
2016,08,12,14,03,25.00
2016,08,12,14,04,24.90
2016,08,12,14,05,24.80
2016,08,12,14,06,24.80
2016,08,12,14,07,24.80
2016,08,12,14,08,24.80
2016,08,12,14,09,24.90
2016,08,12,14,10,25.00
2016,08,12,14,11,25.10
2016,08,12,14,12,25.20
2016,08,12,14,13,25.30
2016,08,12,14,14,25.40
2016,08,12,14,15,25.50
2016,08,12,14,16,25.60
2016,08,12,14,17,25.80
2016,08,12,14,18,25.80
2016,08,12,14,19,25.80
2016,08,12,14,20,25.80
2016,08,12,14,21,25.70
2016,08,12,14,22,25.70
2016,08,12,14,23,25.70
2016,08,12,14,24,25.70
2016,08,12,14,25,25.80
2016,08,12,14,26,25.80
2016,08,12,14,27,25.80
2016,08,12,14,28,25.80
2016,08,12,14,29,25.80
2016,08,12,14,30,25.80
2016,08,12,14,31,25.80
2016,08,12,14,32,25.80
2016,08,12,14,33,25.80
2016,08,12,14,34,25.80
2016,08,12,14,35,25.80
2016,08,12,14,36,25.80
2016,08,12,14,37,25.80
2016,08,12,14,38,25.70
2016,08,12,14,39,25.70
2016,08,12,14,40,25.70
2016,08,12,14,41,25.70
2016,08,12,14,42,25.70
2016,08,12,14,43,25.70
2016,08,12,14,44,25.70
2016,08,12,14,45,25.80
2016,08,12,14,46,25.80
2016,08,12,14,47,25.90
2016,08,12,14,48,25.90
2016,08,12,14,49,25.90
2016,08,12,14,50,25.80
2016,08,12,14,51,25.80
2016,08,12,14,52,25.80
2016,08,12,14,53,25.70
2016,08,12,14,54,25.60
2016,08,12,14,55,25.60
2016,08,12,14,56,25.60
2016,08,12,14,57,25.60
2016,08,12,14,58,25.60
2016,08,12,14,59,25.70
2016,08,12,15,00,25.70
2016,08,12,15,01,25.70
2016,08,12,15,02,25.80
2016,08,12,15,03,25.90
2016,08,12,15,04,26.00
2016,08,12,15,05,26.10
2016,08,12,15,06,26.10
2016,08,12,15,07,26.00
2016,08,12,15,08,25.90
2016,08,12,15,09,25.90
2016,08,12,15,10,25.80
2016,08,12,15,11,25.80
2016,08,12,15,12,25.80
2016,08,12,15,13,25.80
2016,08,12,15,14,25.80
2016,08,12,15,15,25.70
2016,08,12,15,16,25.70
2016,08,12,15,17,25.60
2016,08,12,15,18,25.60
2016,08,12,15,19,25.50
2016,08,12,15,20,25.50
2016,08,12,15,21,25.60
2016,08,12,15,22,25.60
2016,08,12,15,23,25.60
2016,08,12,15,24,25.60
2016,08,12,15,25,25.60
2016,08,12,15,26,25.70
2016,08,12,15,27,25.70
2016,08,12,15,28,25.80
2016,08,12,15,29,25.90
2016,08,12,15,30,26.00
2016,08,12,15,31,26.10
2016,08,12,15,32,26.20
2016,08,12,15,33,26.30
2016,08,12,15,34,26.40
2016,08,12,15,35,26.50
2016,08,12,15,36,26.60
2016,08,12,15,37,26.70
2016,08,12,15,38,26.80
2016,08,12,15,39,26.90
2016,08,12,15,40,27.00
2016,08,12,15,41,27.10
2016,08,12,15,42,27.00
2016,08,12,15,43,27.00
2016,08,12,15,44,27.00
2016,08,12,15,45,27.10
2016,08,12,15,46,27.10
2016,08,12,15,47,27.20
2016,08,12,15,48,27.20
2016,08,12,15,49,27.30
2016,08,12,15,50,27.40
2016,08,12,15,51,27.50
2016,08,12,15,52,27.40
2016,08,12,15,53,27.40
2016,08,12,15,54,27.30
2016,08,12,15,55,27.30
2016,08,12,15,56,27.30
2016,08,12,15,57,27.30
2016,08,12,15,58,27.30
2016,08,12,15,59,27.20
2016,08,12,16,00,27.20
2016,08,12,16,01,27.20
2016,08,12,16,02,27.20
2016,08,12,16,03,27.10
2016,08,12,16,04,27.10
2016,08,12,16,05,27.10
2016,08,12,16,06,27.10
2016,08,12,16,07,27.10
2016,08,12,16,08,27.10
2016,08,12,16,09,27.20
2016,08,12,16,10,27.20
2016,08,12,16,11,27.20
2016,08,12,16,12,27.20
2016,08,12,16,13,27.20
2016,08,12,16,14,27.20
2016,08,12,16,15,27.20
2016,08,12,16,16,27.20
2016,08,12,16,17,27.20
2016,08,12,16,18,27.20
2016,08,12,16,19,27.20
2016,08,12,16,20,27.20
2016,08,12,16,21,27.20
2016,08,12,16,22,27.30
2016,08,12,16,23,27.30
2016,08,12,16,24,27.30
2016,08,12,16,25,27.40
2016,08,12,16,26,27.40
2016,08,12,16,27,27.40
2016,08,12,16,28,27.40
2016,08,12,16,29,27.40
2016,08,12,16,30,27.40
2016,08,12,16,31,27.30
2016,08,12,16,32,27.30
2016,08,12,16,33,27.10
2016,08,12,16,34,27.10
2016,08,12,16,35,27.00
2016,08,12,16,36,26.90
2016,08,12,16,37,26.90
2016,08,12,16,38,26.80
2016,08,12,16,39,26.80
2016,08,12,16,40,26.70
2016,08,12,16,41,26.70
2016,08,12,16,42,26.70
2016,08,12,16,43,26.70
2016,08,12,16,44,26.70
2016,08,12,16,45,26.70
2016,08,12,16,46,26.70
2016,08,12,16,47,26.70
2016,08,12,16,48,26.70
2016,08,12,16,49,26.70
2016,08,12,16,50,26.80
2016,08,12,16,51,26.80
2016,08,12,16,52,26.80
2016,08,12,16,53,26.80
2016,08,12,16,54,26.90
2016,08,12,16,55,26.90
2016,08,12,16,56,27.00
2016,08,12,16,57,27.00
2016,08,12,16,58,27.10
2016,08,12,16,59,27.10
2016,08,12,17,00,27.20
2016,08,12,17,01,27.20
2016,08,12,17,02,27.10
2016,08,12,17,03,27.10
2016,08,12,17,04,27.00
2016,08,12,17,05,27.00
2016,08,12,17,06,26.90
2016,08,12,17,07,26.90
2016,08,12,17,08,27.00
2016,08,12,17,09,27.00
2016,08,12,17,10,27.00
2016,08,12,17,11,27.00
2016,08,12,17,12,27.00
2016,08,12,17,13,27.00
2016,08,12,17,14,26.90
2016,08,12,17,15,26.90
2016,08,12,17,16,26.80
2016,08,12,17,17,26.80
2016,08,12,17,18,26.80
2016,08,12,17,19,26.80